Marshfield, WI

10:11 AM CDT on August 29, 2016 (GMT -0500)
Marshfield Municipal

Weather History for KMFI - February, 2014

Change the Weather History Date:

Tuesday, February 18, 2014

  Actual Average Record
Temperature  
Mean Temperature 24 °F -  
Max Temperature 37 °F 31 °F 55 °F (1981)
Min Temperature 12 °F 13 °F -25 °F (1929)
Degree Days  
Heating Degree Days 40    
Moisture  
Dew Point 19 °F    
Average Humidity 81    
Maximum Humidity 95    
Minimum Humidity 59    
Precipitation  
Precipitation 0.00 in - - ()
Sea Level Pressure  
Sea Level Pressure 29.71 in    
Wind  
Wind Speed 6 mph (SW)    
Max Wind Speed 16 mph    
Max Gust Speed 21 mph    
Averages and records for this station are not official NWS values.
T = Trace of Precipitation, MM = Missing Value Source: NWS Daily Summary

Daily Weather History Graph

Daily Weather History Graph

Search for Another Location

Airport or City:

Trip Planner

Search our weather history database for the weather conditions in past years. The results will help you decide how hot, cold, wet, or windy it might be!

Date:

Astronomy

Feb. 18, 2014 Rise Set
Actual Time 6:56 AM CST 5:33 PM CST
Civil Twilight 6:26 AM CST 6:03 PM CST
Nautical Twilight 5:52 AM CST 6:37 PM CST
Astronomical Twilight 5:18 AM CST 7:11 PM CST
Moon 9:38 PM CST (2/18) 8:18 AM CST (2/18)
Length of Visible Light 11h 36m
Length of Day
10h 37m
Waning Gibbous, 87% of the Moon is Illuminated
Feb 18
Waning Gibbous
Feb 22
Last Quarter
Mar 1
New
Mar 8
First Quarter
Mar 16
Full

Hourly Weather History & Observations

Time (CST) Temp. Windchill Dew Point Humidity Pressure Visibility Wind Dir Wind Speed Gust Speed Precip Events Conditions
12:51 AM 19.4 °F 14.3 °F 17.6 °F 93% 29.76 in - West 3.5 mph - N/A   Overcast
12:54 AM 19.9 °F 14.9 °F 17.1 °F 89% 29.83 in - West 3.5 mph - N/A   Overcast
1:35 AM 21.0 °F 11.4 °F 18.0 °F 88% 29.78 in - West 8.1 mph - N/A   Overcast
1:54 AM 21.0 °F 11.4 °F 18.0 °F 88% 29.85 in - West 8.1 mph - N/A   Overcast
2:20 AM 21.0 °F 14.6 °F 18.0 °F 88% 29.78 in - WSW 4.6 mph - N/A   Overcast
2:45 AM 21.0 °F 13.4 °F 18.0 °F 88% 29.78 in - West 5.8 mph - N/A   Overcast
2:54 AM 21.0 °F 14.6 °F 18.0 °F 88% 29.84 in - West 4.6 mph - N/A   Overcast
3:38 AM 18.0 °F 9.8 °F 14.0 °F 84% 29.75 in - South 5.8 mph - N/A   Mostly Cloudy
3:54 AM 15.1 °F 9.4 °F 14.0 °F 95% 29.81 in - South 3.5 mph - N/A   Mostly Cloudy
4:54 AM 14.0 °F 6.5 °F 12.0 °F 92% 29.79 in - SE 4.6 mph - N/A   Mostly Cloudy
5:05 AM 15.1 °F 7.7 °F 12.0 °F 88% 29.72 in - SE 4.6 mph - N/A   Scattered Clouds
5:38 AM 12.0 °F 2.7 °F 10.0 °F 92% 29.73 in - SSE 5.8 mph - N/A   Mostly Cloudy
5:54 AM 14.0 °F 3.9 °F 12.0 °F 92% 29.79 in - SSE 6.9 mph - N/A   Overcast
6:54 AM 19.0 °F 8.2 °F 16.0 °F 88% 29.77 in - SSE 9.2 mph - N/A   Overcast
7:54 AM 19.9 °F 10.1 °F 17.1 °F 89% 29.75 in - SE 8.1 mph - N/A   Scattered Clouds
8:54 AM 21.0 °F 11.4 °F 18.0 °F 88% 29.73 in - ESE 8.1 mph - N/A   Clear
9:54 AM 24.1 °F 13.7 °F 19.9 °F 84% 29.70 in - ESE 10.4 mph - N/A   Clear
10:54 AM 28.0 °F 16.1 °F 21.9 °F 78% 29.67 in - SSE 16.1 mph 20.7 mph N/A   Clear
11:54 AM 30.9 °F 21.7 °F 23.0 °F 72% 29.64 in - SSE 11.5 mph - N/A   Clear
12:54 PM 33.1 °F 26.1 °F 25.0 °F 72% 29.60 in - South 8.1 mph - N/A   Clear
1:54 PM 34.0 °F 28.8 °F 25.0 °F 70% 29.60 in - SSE 5.8 mph - N/A   Clear
2:54 PM 37.0 °F 34.5 °F 24.1 °F 59% 29.59 in - WSW 3.5 mph - N/A   Clear
3:54 PM 35.1 °F - 24.1 °F 64% 29.59 in - Calm Calm - N/A   Clear
4:54 PM 35.1 °F - 26.1 °F 70% 29.60 in - Calm Calm - N/A   Clear
5:54 PM 28.0 °F 24.2 °F 23.0 °F 81% 29.62 in - WNW 3.5 mph - N/A   Clear
6:54 PM 28.0 °F 21.7 °F 21.0 °F 75% 29.64 in - West 5.8 mph - N/A   Clear
7:54 PM 28.9 °F 22.8 °F 21.0 °F 72% 29.64 in - WNW 5.8 mph - N/A   Clear
8:54 PM 30.9 °F 24.3 °F 21.9 °F 69% 29.66 in - WNW 6.9 mph - N/A   Overcast
9:54 PM 32.0 °F 23.6 °F 23.0 °F 69% 29.66 in - WNW 10.4 mph - N/A   Overcast
10:54 PM 33.1 °F 24.4 °F 23.0 °F 66% 29.68 in - WNW 11.5 mph - N/A   Overcast
11:54 PM 30.9 °F 22.2 °F 21.9 °F 69% 29.68 in - WNW 10.4 mph - N/A   Scattered Clouds